Location: Contre
(49.7477°N, 2.0963°E)
Time: 13:34:22
(UTC+00:00)

Cosmos 2333 Rocket - Pass Details

Date: 03 February 2023
Orbit: 838 x 864 km, 70.8° (Epoch: 21 March)

Event Time Altitude Azimuth Distance (km) Brightness Sun altitude
Rises 19:55:33 0° 225° (SW) 3,384 5.8 -30.1°
Reaches altitude 10° 19:58:03 10° 231° (SW) 2,455 5.0 -30.5°
Maximum altitude 20:03:32 50° 306° (NW) 1,064 2.9 -31.4°
Enters shadow 20:04:29 46° 338° (NNW) 1,134 2.9 -31.6°
